Zurück zum Katalog

STARLINK-35337

AktivKommunikationVLEO
NORAD 65831·PAYLOAD·🇺🇸 United States

Gestartet Sep 29, 2025 von Vandenberg Space Force Base

Loading…

Nächste Überflüge (nächste 24 Stunden)

TLE

AktuellSource: CelesTrak SupGP

Epoche: Sep 14, 2026, 21:32 UTC

1 65831C 25221J   26257.89770833  .00040722  00000+0  12033-2 0  2574
2 65831  53.1586 285.5395 0001156  86.6902  60.4256 15.34366646    12

Verfolge STARLINK-35337 in Echtzeit mit AllMySat

Download on the App Store